Погода в Новоиушино

Россия / Алтайский край     53°37′42″N   85°49′09″E
темп.,
°C
ветер,
м/с
пор.,
м/с
влажн.,
%
обл.,
%
осадки,
мм/ч
давл.,
гПа
погр.,
м
13 июня, вс
вс1301:00+8с258317 0.0 101588
04:00+6ссв118769 0.0 101519
07:00+10с24688 0.0 1016172
10:00+17ссз2342100 0.0 10161448
13:00+20з33346 0.0 10152360
16:00+20з664398 0.0 10152082
19:00+17зсз5762100 0.1 1015929
22:00+13зсз2386100 0.1 101787
14 июня, пн
пн1401:00+12з1198100 0.3 101738
04:00+11з129993 0.3 101789
07:00+12ссз1496100 0.3 1018257
10:00+15с347668 0.1 1019900
13:00+19ссз345259 0.1 10181725
16:00+20с344194 0.1 10181796
19:00+19ссв35460 0.1 10181461
22:00+11с22730 0.0 101927
15 июня, вт
вт1501:00+10с22751 0.0 101941
04:00+8с23805 0.0 101941
07:00+12ссв246571 0.0 1019145
10:00+19св3540100 0.0 10191152
13:00+22ссв2434100 0.0 10182103
16:00+23сз2436100 0.0 10172063
19:00+21з355721 0.0 1016458
22:00+14ссз229143 0.3 101718
16 июня, ср
ср1601:00+12с1193100 0.3 101710
04:00+11всв1194100 0.0 101710
07:00+14ююз01925 0.0 101761
10:00+20зюз23635 0.0 1016678
13:00+23зюз32509 0.1 10151630
16:00+23з335151 0.0 10141517
19:00+23зюз225919 0.0 1014853
22:00+16вюв00870 0.0 101411
17 июня, чт
чт1701:00+14юв11915 0.0 101411
04:00+13ю01935 0.0 101310
07:00+16ююз128341 0.0 101397
10:00+22юз33612 0.0 1013634
13:00+25зюз34530 0.0 10111450
16:00+26з345016 0.1 10101807
19:00+24з23600 0.1 1009858
22:00+18зюз11880 0.4 101011